Temp
62 62 62 62 62 62 62 62 62 62 62 62 62 62 62 62 62 65 61 76 78 80 81 85 86 85 85 80 84 80 59 58 61 70 74 83 83 87 89 80 82 83 77 79 83
62 62 61 61 62 62 62 62 62 62 62 62 62 62 62 62 59 62 77 81 81 81 82 81 79 83 77 77 79 69 60 62 67 77 76 83 85 86 79 76 75 75 79 83 83
61 61 61 61 61 62 62 62 62 61 61 61 61 61 62 62 61 73 84 80 83 81 85 86 87 83 75 80 79 75 66 75 76 83 86 83 85 90 77 70 73 71 75 81 80
61 61 60 61 61 61 61 61 61 61 61 61 61 61 62 61 61 88 83 81 82 85 84 83 82 77 74 73 82 77 80 82 84 87 84 79 81 86 81 77 80 79 80 80 80
60 60 60 60 60 61 61 61 60 60 60 61 62 61 58 58 65 90 82 81 84 85 82 80 77 78 73 78 82 81 80 86 85 84 84 78 80 83 80 83 82 81 81 79 80
60 60 60 60 60 60 61 60 60 59 61 62 63 62 56 55 86 91 88 83 84 83 81 82 80 84 80 80 79 85 86 83 80 84 86 82 84 84 82 83 80 80 78 80 81
59 59 59 59 60 60 60 59 59 60 61 62 64 63 60 62 90 92 88 82 86 84 80 85 87 82 83 79 87 85 81 83 85 84 85 88 76 81 83 84 80 79 79 80 81
59 59 59 59 59 59 59 58 59 61 61 64 65 61 54 82 82 82 87 85 88 87 86 87 89 83 82 86 84 79 80 72 82 85 89 83 68 78 84 82 78 80 80 80 80
59 59 59 59 59 58 57 57 62 64 63 64 60 58 59 86 81 86 87 87 86 86 87 93 87 79 81 74 70 72 67 70 76 89 89 81 72 75 80 83 79 80 81 81 80
58 58 58 58 58 57 56 60 65 61 64 70 71 56 69 78 87 89 90 91 86 84 82 81 77 72 73 69 58 63 65 70 73 84 84 78 77 77 81 78 73 77 81 82 81
58 58 58 58 57 56 55 57 65 61 66 61 65 67 69 84 88 87 91 87 86 81 70 75 66 64 69 73 74 74 72 71 78 86 80 79 78 79 76 73 73 76 77 81 83
58 57 57 57 56 57 57 66 67 69 58 71 72 72 76 78 71 80 90 78 77 70 75 69 64 74 78 77 75 74 71 71 79 85 79 79 78 83 76 78 80 79 76 78 84
58 57 57 56 56 63 67 70 79 75 57 63 70 70 70 74 69 72 82 81 75 71 72 66 71 80 78 75 73 72 69 71 72 80 85 81 77 79 78 78 74 72 72 77 84
58 57 56 54 61 65 68 77 79 77 46 59 66 74 75 75 70 83 84 82 76 70 74 71 78 76 74 73 75 65 77 78 77 73 65 79 57 70 79 75 74 72 71 77 85
57 57 55 54 55 61 70 79 79 70 36 71 69 83 75 69 75 78 85 81 72 73 74 69 73 73 71 74 79 71 80 78 77 71 66 72 66 72 77 76 75 75 76 85 86
57 56 55 60 62 68 77 78 71 45 40 63 66 63 63 67 70 79 78 82 82 75 76 74 83 79 76 81 81 82 75 73 74 70 58 66 66 65 74 78 80 83 86 88 89
55 54 53 63 60 75 75 68 45 39 64 57 55 61 59 61 65 66 67 68 65 60 61 71 74 80 82 74 79 76 66 54 53 56 55 64 61 64 75 84 84 87 87 89 90
54 53 59 70 72 74 70 54 38 55 54 61 58 58 55 59 58 59 55 61 72 69 59 59 58 74 82 75 70 71 69 52 43 49 56 65 61 68 80 83 89 91 92 92 90
54 63 67 74 74 72 58 43 46 53 58 55 55 50 52 56 54 52 51 54 65 72 61 59 61 79 81 83 79 70 65 70 55 57 52 57 65 75 83 84 86 85 92 90 91
54 59 64 77 77 66 52 45 53 61 60 57 45 51 46 49 48 48 46 56 54 57 63 68 56 74 80 82 81 75 75 61 63 47 47 59 62 66 74 79 84 83 84 91 93
58 56 70 79 73 59 47 52 57 62 60 52 48 47 49 47 47 46 46 52 52 51 56 57 59 65 73 72 70 71 68 70 61 57 48 48 59 79 77 81 83 84 84 91 92
56 49 72 77 56 56 50 56 55 58 60 55 53 51 48 50 44 44 44 47 54 52 43 57 52 57 63 76 82 77 72 67 62 54 60 58 62 79 78 86 87 87 85 86 93
49 54 70 68 47 48 53 54 58 55 53 51 50 53 53 48 40 42 45 54 53 50 49 52 47 49 58 65 74 73 75 74 66 61 58 54 58 81 79 85 85 81 84 87 88
51 47 54 57 57 49 47 48 50 59 54 52 50 49 48 46 46 39 41 49 52 53 56 56 50 48 50 60 65 66 74 75 69 63 63 62 63 71 77 78 79 81 83 83 84
54 47 48 41 45 45 49 50 45 47 54 54 49 50 43 39 43 42 44 48 53 52 49 50 44 54 60 66 69 73 74 75 70 69 63 66 65 70 71 75 77 81 83 84 83
48 42 45 40 44 46 47 46 46 49 49 48 47 51 47 41 39 39 46 46 44 47 44 50 44 52 53 66 70 68 72 77 75 75 72 71 69 75 78 78 79 79 80 79 80
55 52 42 39 41 42 43 45 45 49 48 50 52 49 48 50 51 52 55 54 53 46 43 46 47 45 45 60 62 56 66 72 76 78 75 66 71 76 74 77 78 78 80 80 82
MSLP
1018.17 1017.65 1017.16 1016.66 1016.09 1015.53 1014.97 1014.52 1014.03 1013.55 1013.14 1012.62 1012.24 1011.90 1011.77 1011.54 1010.95 1010.22 1008.90 1006.16 1006.28 1006.41 1006.56 1006.83 1007.04 1006.93 1007.39 1007.63 1007.20 1008.21 1010.17 1010.04 1008.83 1006.28 1004.00 1002.88 1002.24 1003.23 1003.60 1004.96 1005.85 1006.49 1007.80 1009.50 1010.13
1018.20 1017.64 1017.05 1016.49 1015.88 1015.24 1014.72 1014.20 1013.65 1013.17 1012.76 1012.38 1011.93 1011.63 1011.51 1011.39 1010.73 1008.24 1005.18 1004.76 1004.97 1005.70 1006.23 1006.20 1006.46 1006.62 1006.73 1006.69 1006.66 1007.44 1008.69 1008.28 1007.36 1005.27 1003.86 1003.48 1002.18 1002.85 1004.04 1005.35 1006.63 1007.49 1009.21 1009.90 1010.44
1018.10 1017.52 1016.92 1016.28 1015.63 1014.92 1014.26 1013.78 1013.30 1012.74 1012.27 1012.02 1011.68 1011.39 1011.33 1011.15 1009.43 1004.08 1001.63 1003.12 1003.82 1004.73 1005.33 1005.65 1005.62 1005.96 1006.12 1005.91 1005.33 1006.21 1006.07 1005.58 1005.32 1004.27 1003.87 1003.12 1002.74 1002.18 1004.06 1005.78 1006.18 1007.32 1008.66 1009.63 1010.38
1018.14 1017.44 1016.71 1016.00 1015.25 1014.55 1013.87 1013.29 1012.84 1012.37 1011.86 1011.47 1011.28 1011.17 1011.16 1010.88 1007.09 1001.78 1001.29 1001.64 1003.29 1004.33 1005.00 1005.17 1005.09 1005.16 1005.19 1004.91 1004.14 1004.35 1004.15 1003.94 1003.00 1003.01 1003.41 1003.26 1003.73 1002.68 1003.09 1005.09 1006.35 1007.13 1008.09 1009.01 1010.04
1018.12 1017.37 1016.56 1015.69 1014.80 1013.98 1013.34 1012.78 1012.33 1011.86 1011.44 1011.13 1010.86 1010.92 1011.01 1009.65 1004.83 1001.40 1001.46 1001.51 1003.22 1003.93 1004.09 1004.28 1004.26 1004.13 1003.97 1003.73 1003.27 1002.87 1002.76 1002.45 1002.09 1002.43 1002.03 1002.14 1002.72 1002.03 1003.78 1005.24 1006.66 1007.73 1008.57 1009.25 1009.84
1018.07 1017.26 1016.44 1015.53 1014.51 1013.55 1012.82 1012.22 1011.79 1011.35 1010.88 1010.66 1010.48 1010.82 1010.50 1007.42 1001.68 1001.10 1001.57 1002.21 1002.31 1003.24 1003.43 1003.54 1003.19 1002.98 1002.94 1002.75 1002.26 1001.47 1001.50 1002.10 1002.79 1001.51 1002.04 1001.59 1001.77 1002.32 1003.96 1005.03 1006.46 1007.64 1008.42 1009.00 1009.46
1017.95 1017.08 1016.15 1015.16 1013.98 1012.94 1012.18 1011.63 1011.05 1010.58 1010.19 1010.13 1009.98 1010.28 1008.80 1004.10 1000.63 1000.28 1000.92 1001.45 1001.68 1002.29 1002.72 1002.67 1002.60 1002.51 1002.34 1001.96 1001.35 1001.11 1001.29 1001.31 1000.80 1000.13 1000.81 1001.51 1002.11 1002.35 1003.87 1004.87 1006.45 1007.30 1008.30 1008.75 1009.04
1017.85 1016.90 1015.95 1014.97 1013.76 1012.63 1011.67 1010.73 1009.91 1009.44 1009.40 1009.31 1009.42 1009.64 1006.57 1001.41 1000.80 1001.17 1000.78 1001.03 1001.33 1001.85 1002.27 1002.29 1002.11 1002.29 1001.95 1001.48 1000.98 1000.76 1000.52 1000.61 1000.03 999.58 998.98 1000.83 1001.61 1002.86 1003.09 1002.96 1005.58 1006.92 1008.12 1008.40 1008.74
1017.86 1016.79 1015.83 1014.81 1013.50 1012.39 1011.32 1010.10 1008.83 1008.32 1008.82 1009.06 1009.20 1008.53 1004.16 1000.09 1000.04 999.50 999.81 999.95 1000.63 1001.18 1001.67 1001.86 1001.86 1001.99 1001.78 1001.47 1001.29 1000.40 1000.15 999.67 998.81 998.18 998.19 998.80 1000.48 1002.61 1003.19 1003.56 1005.92 1006.59 1006.98 1007.82 1008.32
1017.96 1016.90 1015.76 1014.69 1013.48 1012.29 1011.42 1009.54 1008.47 1008.65 1008.70 1008.61 1008.04 1007.75 1002.88 999.89 998.80 998.85 998.95 999.19 999.77 1000.55 1001.24 1001.35 1001.52 1001.52 1001.17 1000.99 1000.28 1000.38 1000.00 999.35 998.50 997.72 997.78 998.55 999.39 1001.82 1003.02 1003.20 1004.18 1007.69 1007.13 1007.00 1007.31
1017.85 1016.97 1015.71 1014.61 1013.34 1011.85 1011.97 1010.43 1009.00 1008.24 1007.47 1007.99 1006.53 1004.72 1001.97 999.66 998.93 998.15 998.38 999.09 999.28 999.96 1000.23 1000.65 1000.93 999.84 999.83 1000.24 1000.37 1000.23 999.73 998.95 997.97 997.28 997.53 998.12 999.04 1001.03 1002.47 1003.60 1005.14 1006.22 1006.77 1006.43 1006.77
1017.68 1016.79 1015.65 1014.27 1013.09 1011.35 1011.47 1010.34 1009.46 1008.79 1005.01 1004.81 1003.18 1002.43 1001.59 1001.26 1001.05 998.21 997.93 998.66 998.69 998.70 999.70 1000.21 999.08 999.30 999.82 999.99 999.98 999.63 999.15 998.62 997.71 996.81 997.08 997.79 998.63 999.24 1001.27 1002.04 1003.03 1004.06 1006.50 1007.07 1006.26
1017.49 1016.48 1015.52 1014.17 1012.22 1010.99 1010.87 1009.53 1008.58 1007.91 1006.83 1002.00 1001.16 1001.18 1000.50 1000.41 999.79 998.63 998.18 997.76 997.87 998.12 998.26 998.12 997.48 998.97 998.78 998.97 999.05 998.75 998.44 998.16 997.73 996.82 996.68 997.17 997.91 998.83 1000.50 1001.30 1003.07 1004.10 1005.40 1005.79 1004.94
1017.28 1016.32 1015.45 1014.93 1012.06 1011.76 1010.20 1008.82 1008.09 1007.60 1006.64 1002.02 1000.14 999.06 999.34 999.17 998.35 997.87 997.32 997.32 997.57 997.29 997.64 997.31 997.69 997.41 997.82 997.66 997.96 997.83 997.94 997.90 997.45 997.47 997.19 996.72 997.85 998.24 999.18 1000.24 1001.67 1002.58 1003.33 1003.47 1003.59
1017.05 1016.03 1015.24 1014.90 1014.21 1012.32 1010.06 1008.62 1008.01 1007.69 1006.21 1001.13 1000.85 1000.12 999.71 999.11 997.31 996.27 996.20 996.70 996.37 996.76 997.30 995.41 996.03 996.36 996.54 996.18 996.87 997.10 997.75 997.72 997.51 997.73 997.79 997.34 997.32 997.17 997.25 998.69 999.68 1000.58 1001.35 1001.02 1002.01
1016.94 1015.88 1015.63 1013.62 1013.29 1011.18 1009.82 1008.70 1008.10 1008.00 1005.35 1002.76 1002.91 1002.13 1001.48 1000.53 999.27 997.14 997.05 996.77 996.69 996.85 996.07 995.79 995.48 995.49 995.48 995.85 996.23 996.96 997.40 997.82 997.83 998.19 997.88 997.44 997.57 996.73 996.04 996.30 996.63 997.51 998.53 998.95 999.80
1016.36 1015.48 1015.01 1014.30 1012.40 1010.38 1009.85 1009.05 1008.50 1007.07 1004.74 1004.22 1004.19 1003.91 1003.23 1002.06 1000.26 999.71 997.98 997.12 996.73 996.81 995.60 995.75 994.80 994.43 994.40 995.09 995.42 996.26 997.21 998.26 998.53 997.95 997.71 997.42 997.11 995.87 994.77 994.44 994.59 995.22 996.32 997.08 997.92
1015.73 1014.40 1012.74 1012.21 1011.32 1010.56 1010.09 1010.03 1009.11 1006.83 1006.42 1005.71 1005.86 1005.30 1004.66 1003.92 1002.84 1002.13 1001.12 998.33 997.32 996.93 996.60 995.72 994.32 993.30 993.51 993.60 994.51 995.10 995.96 996.90 997.56 998.07 998.13 997.42 995.70 994.65 994.33 993.83 993.71 993.55 993.99 995.28 996.68
1015.62 1013.32 1012.01 1010.62 1010.50 1010.40 1010.65 1009.98 1008.44 1007.72 1007.49 1007.14 1006.59 1006.16 1005.97 1005.81 1005.66 1005.38 1004.29 1001.67 999.06 997.59 997.09 996.20 993.94 993.34 993.04 992.97 993.46 994.20 994.69 996.07 997.08 997.77 997.99 997.06 995.87 994.61 993.54 992.82 992.76 993.20 993.73 994.27 995.69
1016.41 1013.66 1011.29 1009.70 1009.54 1009.87 1010.48 1009.90 1009.28 1008.56 1008.31 1008.37 1008.51 1008.17 1007.55 1007.75 1007.93 1007.99 1006.79 1003.79 1003.40 1002.11 999.87 996.90 996.16 993.54 992.49 992.97 992.36 992.50 994.22 995.37 996.19 997.58 997.81 996.89 995.45 993.49 993.09 992.48 991.81 992.37 992.74 993.06 993.63
1016.20 1013.46 1009.85 1009.47 1009.34 1009.93 1010.10 1009.69 1009.55 1009.24 1009.50 1009.69 1009.67 1009.36 1008.84 1009.09 1009.60 1009.67 1008.77 1006.84 1006.22 1004.59 1003.26 1000.64 997.11 993.63 992.91 991.48 991.23 992.05 993.01 993.97 995.68 996.47 997.06 996.45 993.86 991.99 991.38 991.04 991.19 991.29 991.79 992.42 993.04
1016.97 1014.19 1010.91 1010.00 1010.16 1010.07 1010.37 1010.25 1010.00 1009.80 1009.97 1010.19 1010.50 1010.21 1009.93 1010.06 1010.12 1010.49 1009.89 1009.87 1008.88 1008.38 1006.21 1002.67 999.03 995.21 992.69 991.38 990.79 991.67 991.98 993.19 994.33 995.50 995.81 995.03 993.08 990.52 989.37 988.92 989.89 990.54 990.94 991.49 992.23
1017.82 1014.78 1011.88 1011.48 1011.52 1011.72 1011.62 1011.30 1010.61 1010.32 1010.76 1011.20 1011.12 1010.71 1010.74 1010.78 1011.11 1011.35 1010.99 1010.18 1009.79 1009.26 1007.01 1004.69 1000.28 997.05 993.85 992.62 991.32 990.41 990.93 991.98 993.38 994.56 994.75 994.74 993.00 990.59 989.02 988.40 989.28 990.29 990.65 990.97 991.84
1018.30 1015.73 1014.42 1013.67 1013.54 1013.54 1012.93 1012.22 1011.38 1010.81 1011.27 1011.65 1011.48 1011.48 1011.17 1011.02 1011.21 1011.55 1011.36 1010.78 1010.01 1009.05 1007.85 1006.11 1001.39 998.99 995.14 992.37 991.33 990.45 990.24 991.14 992.43 993.29 993.74 993.16 992.74 991.31 990.26 989.60 989.95 990.30 990.68 991.17 991.62
1018.68 1017.82 1018.13 1016.73 1015.57 1015.54 1014.37 1013.26 1012.64 1011.58 1011.49 1011.45 1011.16 1011.12 1011.79 1011.63 1011.17 1011.00 1010.89 1010.11 1009.38 1008.80 1007.97 1006.76 1001.71 998.86 995.38 992.88 991.67 990.32 989.83 990.21 990.76 991.90 992.26 992.22 992.60 991.47 990.81 990.45 990.47 990.67 991.28 991.56 991.94
1019.49 1019.80 1019.51 1018.82 1017.59 1016.27 1015.21 1014.14 1013.36 1012.48 1012.20 1011.30 1011.09 1010.87 1011.20 1011.36 1011.94 1010.86 1009.96 1009.49 1009.32 1008.79 1008.56 1005.81 1002.50 999.29 995.57 993.33 992.13 990.94 989.60 988.95 990.06 990.78 991.65 991.25 991.62 990.89 990.82 990.94 991.39 991.96 992.24 992.71 993.06
1019.62 1020.14 1020.55 1019.65 1018.58 1017.38 1016.00 1015.20 1014.56 1013.83 1013.04 1012.38 1011.25 1010.89 1010.82 1010.33 1010.12 1009.78 1009.06 1008.46 1008.47 1008.41 1008.36 1006.53 1003.67 1000.71 996.90 994.21 992.97 991.54 990.09 989.75 989.57 990.25 990.89 991.20 990.96 991.29 991.68 991.71 991.81 992.44 993.18 993.52 993.61
Wind_Speed
22 22 21 21 21 21 21 20 20 20 19 19 18 18 16 14 17 8 12 13 13 14 3 13 12 12 17 13 16 10 5 5 7 11 6 3 21 18 17 22 9 9 22 22 22
23 23 24 23 23 23 22 21 21 21 20 19 18 17 16 13 13 17 16 21 22 20 8 13 15 15 13 15 10 7 2 10 10 10 10 9 19 19 22 20 20 25 22 22 22
25 25 25 25 25 25 24 23 22 22 21 18 17 16 13 12 7 11 13 30 23 19 19 12 12 16 16 14 17 13 10 11 18 16 13 18 5 15 23 17 28 31 29 24 23
25 26 25 27 27 26 26 25 23 21 20 19 15 12 9 5 4 4 6 24 24 15 14 17 16 16 14 19 21 11 13 9 9 7 6 8 10 12 24 16 26 28 28 24 24
25 25 25 26 27 27 25 24 22 21 19 16 11 6 4 6 16 7 2 16 19 18 18 17 17 15 19 17 18 18 12 16 11 11 20 29 23 17 24 26 26 25 26 24 20
25 26 26 27 28 28 26 24 21 20 19 13 6 4 4 10 9 15 8 15 17 20 17 16 12 13 11 19 16 15 15 14 14 17 9 16 6 11 25 29 29 27 26 24 22
26 27 28 28 30 30 28 25 23 19 18 13 5 8 9 21 8 11 18 11 15 21 18 18 18 14 16 12 20 18 11 14 19 18 11 9 6 11 27 26 26 26 24 23 24
26 27 28 29 31 31 30 30 27 22 15 9 7 8 12 12 18 20 12 12 14 16 16 12 17 15 17 11 18 17 16 16 22 20 20 15 9 17 25 31 27 25 23 24 26
27 29 29 30 32 30 30 33 28 8 6 5 8 6 13 12 8 13 12 16 18 11 16 17 17 17 16 15 13 10 12 9 13 15 9 7 8 19 21 22 20 22 24 23 26
27 29 30 31 32 31 31 29 11 2 5 9 7 4 9 6 8 12 13 12 15 13 15 16 10 14 14 11 16 10 7 11 13 15 12 7 8 28 25 30 29 15 21 21 24
27 28 31 30 31 32 16 9 9 3 7 11 18 24 41 14 20 14 14 17 14 15 17 17 11 21 21 18 11 11 17 11 12 15 11 15 10 27 24 23 22 15 17 22 21
26 27 30 32 32 33 6 9 10 12 23 19 28 28 28 19 17 15 15 16 18 20 17 12 24 18 14 15 19 18 21 17 15 17 10 16 14 16 25 30 25 23 11 17 21
26 27 28 32 34 13 16 14 14 13 10 21 16 15 19 13 19 29 12 21 16 22 24 23 13 19 19 20 23 22 18 17 14 13 17 16 18 10 24 23 22 26 26 25 25
26 26 27 29 10 11 9 17 14 12 5 12 5 5 0 10 11 26 23 20 18 23 23 25 20 24 26 23 21 19 18 21 20 14 8 12 6 10 16 22 29 29 26 31 25
29 29 27 17 7 6 12 17 15 8 6 13 18 9 35 9 6 14 26 18 26 21 21 25 24 25 26 26 21 14 17 21 22 15 8 11 10 12 12 21 27 25 29 32 28
31 31 26 9 3 12 15 18 10 2 7 10 20 25 30 22 18 22 9 17 15 22 23 24 14 23 24 20 17 15 10 11 16 13 13 14 9 10 16 18 16 27 31 27 28
32 31 20 6 5 10 13 9 4 4 12 12 24 23 23 22 19 24 19 19 19 19 25 18 28 22 18 20 20 18 12 7 9 13 13 8 7 9 6 16 14 22 26 26 29
37 34 8 8 8 12 7 9 6 8 13 19 17 21 16 21 23 29 30 13 22 22 5 20 21 31 23 22 16 22 21 7 9 8 10 7 15 10 11 7 10 13 22 26 29
34 6 6 9 11 6 5 5 6 9 13 16 23 15 22 22 17 26 22 13 17 21 23 14 28 14 28 15 18 17 20 11 3 7 2 4 8 13 20 15 14 9 12 28 26
12 5 6 6 5 3 3 11 16 14 15 15 18 14 20 13 13 16 15 14 25 26 26 27 12 18 20 24 21 20 11 12 9 9 9 11 15 17 16 21 17 12 10 27 26
6 8 1 8 3 4 8 7 14 14 16 12 13 20 16 8 13 15 11 28 23 30 30 19 12 28 14 26 28 12 12 15 6 6 7 5 9 18 22 23 21 16 11 19 25
6 6 10 9 8 5 9 16 15 15 8 9 9 11 16 16 3 8 15 9 26 26 27 17 10 16 29 17 26 18 19 13 12 13 8 6 13 9 8 27 23 17 11 14 23
7 6 7 12 5 6 12 15 16 11 10 8 8 12 14 8 5 9 11 11 14 24 15 17 8 7 19 13 18 29 20 19 8 6 14 7 8 5 11 18 16 11 9 10 16
5 5 5 6 9 14 13 14 15 8 4 3 8 4 14 11 3 2 8 9 19 22 30 24 12 14 12 15 6 12 24 19 13 13 15 11 6 5 8 8 8 9 8 10 12
3 4 6 7 9 17 17 13 14 16 5 8 5 5 8 9 12 5 10 15 17 15 19 16 9 14 15 15 14 18 27 23 22 16 16 11 6 7 2 7 6 7 6 8 8
4 2 4 8 12 14 15 10 15 19 20 13 11 9 6 9 7 10 12 9 6 13 18 19 9 17 7 11 10 8 12 26 23 20 16 13 8 8 8 8 13 10 12 12 11
2 3 1 3 8 9 7 13 20 17 11 21 17 14 13 10 14 10 17 11 13 9 13 20 12 11 6 3 6 6 9 8 20 19 16 14 9 8 5 8 13 12 10 10 10
Wind_Direction
352 349 346 342 338 334 331 327 321 319 315 310 308 307 309 310 307 258 234 221 193 219 174 173 202 216 178 211 206 150 104 270 277 306 348 309 114 132 122 133 156 204 141 144 140
351 348 343 339 335 331 327 323 320 317 312 307 305 304 308 316 290 255 232 206 226 187 204 198 188 203 211 206 229 154 103 191 209 278 292 328 122 135 112 108 100 110 130 143 149
348 344 340 337 333 329 325 322 320 316 310 307 301 299 305 313 279 246 202 212 208 180 204 220 208 199 211 225 229 177 214 199 225 251 253 255 246 148 119 123 140 140 150 151 158
345 340 336 334 331 327 324 322 320 316 310 308 302 292 298 269 243 102 306 188 197 175 197 213 233 205 210 220 229 208 227 209 262 270 159 75 300 243 138 148 146 145 149 152 161
341 337 334 332 328 325 322 320 317 315 310 308 306 279 251 214 246 284 69 160 172 181 199 208 226 212 214 222 231 229 187 234 323 277 172 159 214 94 126 136 142 147 150 159 163
338 337 334 331 326 323 322 320 316 311 307 299 282 202 238 247 247 213 135 149 169 187 201 208 227 223 231 233 237 244 202 150 239 255 198 175 144 134 137 140 147 157 160 168 166
338 336 333 331 328 325 323 319 312 302 297 285 253 208 249 238 244 308 157 179 178 188 202 215 230 241 224 249 243 257 236 202 207 244 198 200 101 144 143 140 153 160 166 172 172
337 334 333 331 327 325 324 320 309 296 280 280 205 206 251 248 239 262 242 173 193 190 215 221 235 249 257 255 260 248 254 223 218 225 236 162 185 148 152 146 159 166 174 177 179
338 334 333 331 327 326 324 320 318 301 235 164 161 225 262 301 216 235 220 191 180 203 202 225 223 233 249 236 255 254 249 229 249 226 224 174 167 172 161 149 154 175 177 184 179
338 334 332 330 326 324 325 312 308 160 207 183 247 299 259 253 224 211 210 239 185 199 187 217 224 229 233 222 222 228 237 250 234 242 204 212 224 161 177 140 154 218 189 185 178
337 334 329 329 324 318 335 328 357 286 335 266 262 278 293 292 324 187 203 211 221 196 202 208 212 223 214 227 237 230 239 226 247 234 191 212 217 163 159 148 165 180 198 185 202
336 334 330 329 323 314 305 355 353 289 299 261 250 253 255 265 284 290 193 194 215 202 199 203 226 223 210 218 235 233 242 248 237 241 196 203 219 169 165 166 162 163 239 239 191
335 336 336 334 320 312 331 352 328 322 293 295 251 248 237 212 233 254 237 204 212 208 202 208 216 218 216 218 221 232 236 245 243 251 240 198 220 220 180 156 144 155 167 238 190
335 337 336 341 330 335 317 332 329 319 307 279 201 309 115 224 256 227 244 208 223 219 212 223 225 200 225 221 219 221 233 248 254 259 250 178 205 233 178 169 168 169 184 203 192
335 336 337 332 284 291 295 318 317 311 316 17 6 7 345 172 260 206 221 229 214 217 209 215 194 225 210 224 218 225 220 233 249 259 271 267 199 228 214 182 189 177 190 187 184
333 328 336 323 240 247 302 313 306 229 251 324 10 353 347 339 317 287 232 234 218 230 235 231 213 220 227 213 224 227 229 244 244 248 254 247 219 232 210 201 182 183 187 182 176
327 323 323 286 253 304 298 319 308 229 333 357 359 346 330 341 343 358 303 218 209 217 231 228 228 219 226 219 204 215 207 228 231 229 234 242 245 215 222 195 182 186 182 177 176
327 316 273 227 248 281 320 310 262 295 344 342 349 329 323 351 340 346 337 279 227 221 211 228 229 216 209 224 199 207 215 179 208 211 240 233 248 254 253 234 235 200 176 173 179
324 316 279 279 227 259 310 289 309 347 358 347 337 343 335 336 353 341 331 315 307 212 227 216 243 196 229 210 212 206 216 210 212 205 203 220 269 270 261 257 240 226 186 177 180
320 287 272 270 291 286 278 261 311 5 357 355 340 327 318 351 337 339 319 305 344 350 339 246 277 226 220 224 238 215 174 212 213 194 221 231 219 230 227 235 240 221 237 188 177
298 315 83 323 319 290 263 308 330 20 5 341 336 318 315 10 358 320 291 313 1 339 333 318 246 249 235 204 216 203 209 200 178 182 182 226 246 229 223 215 219 220 193 186 182
308 306 318 327 319 342 0 353 349 348 10 11 314 336 345 332 295 310 287 289 336 326 320 304 289 235 239 247 209 221 211 194 201 227 233 228 263 332 292 203 201 213 198 175 181
305 275 1 352 351 359 339 335 330 355 20 3 308 324 316 345 341 344 323 298 330 314 327 329 327 271 250 257 257 212 199 211 180 151 230 219 268 310 330 180 182 174 187 193 164
291 314 351 315 7 356 337 318 326 339 1 247 278 325 310 327 134 256 277 303 315 310 313 311 251 248 257 233 231 222 206 201 198 204 228 230 214 329 356 96 147 163 148 173 140
326 354 20 312 333 324 310 316 330 314 213 265 253 318 3 312 317 333 322 318 310 328 318 308 271 266 269 268 278 261 197 193 206 209 203 230 215 179 196 59 98 128 111 131 134
326 3 356 291 302 300 309 327 312 334 332 326 321 309 283 239 171 286 298 309 306 321 318 304 284 320 294 277 289 309 277 195 200 212 223 227 226 209 172 107 82 80 83 76 70
28 51 107 276 303 304 289 325 325 327 323 322 306 319 304 304 315 285 270 259 255 238 299 291 321 329 298 17 339 309 250 258 197 199 208 232 199 168 169 138 130 112 94 91 88